Weather Roundup
Issued by NWS Chicago, IL

Home | Current Version | Previous Version | Text Only | Print | Product List | Glossary Off
Versions: 1 2 3 4 5 6 7 8 9 10 11 12 13 14 15 16 17 18 19 20 21 22 23 24 25 26 27 28 29 30 31 32 33 34 35 36 37 38 39 40 41 42 43 44 45 46 47 48 49 50

000
NZUS59 KLOT 211612
HRRLOT

CHICAGO AREA WEATHER ROUNDUP
NATIONAL WEATHER SERVICE CHICAGO/ROMEOVILLE IL
1000 AM CST SAT JAN 21 2017

NOTE: "FAIR" INDICATES FEW OR NO CLOUDS BELOW 12,000 FEET WITH NO
SIGNIFICANT WEATHER AND/OR OBSTRUCTIONS TO VISIBILITY.

* THESE STATIONS ARE NOT UNDER NWS QUALITY CONTROL. THEY ALSO MAY NOT
  REPORT WEATHER SUCH AS PRECIPITATION OR FOG.

ILZ005-006-012>014-019>023-211700-
NORTHEAST ILLINOIS

CITY           SKY/WX    TMP DP  RH WIND       PRES   REMARKS
OHARE          MOSUNNY   52  48  86 S14       29.51S
MIDWAY         MOSUNNY   52  47  83 S15G21    29.53S
AURORA         SUNNY     52  47  83 S13       29.51S
LANSING*       MOSUNNY   52  50  95 S12       29.56R
JOLIET*        SUNNY     53  49  88 S8        29.53S
WAUKEGAN       FOG       43  43 100 SE6       29.51F VSB 1/4
DUPAGE AIRPORT SUNNY     51  47  86 S12       29.51S
WHEELING       MOSUNNY   52  48  86 S8        29.53R
KANKAKEE*      SUNNY     53  48  84 S15G22    29.55S
MORRIS*        SUNNY     50  49  95 S10       29.51S
NORTHERLY ISL    N/A     41  40  96 SE3         N/A
$$

WIZ051-052-058>065-066-070>072-211700-
SOUTHEAST WISCONSIN

CITY           SKY/WX    TMP DP  RH WIND       PRES   REMARKS
MILWAUKEE      PTSUNNY   48  46  93 S7        29.51F FOG
KENOSHA*       CLOUDY    49  47  93 S10       29.51S FOG
RACINE*        FOG       44  43  96 S10       29.53S VSB 3/4
WAUKESHA       CLOUDY    43  43 100 E5        29.52R FOG
WEST BEND      FOG       37  37 100 CALM      29.51S VSB<1/4
$$

INZ001>003-010>013-019-020-211700-
NORTHWEST INDIANA

CITY           SKY/WX    TMP DP  RH WIND       PRES   REMARKS
GARY*          MOSUNNY   52  50  93 S12       29.56R
MICHIGAN CITY* NOT AVBL
RENSSELAER*    NOT AVBL
VALPARAISO     MOSUNNY   52  51  97 S10       29.58S FOG
$$

LMZ740>746-211700-
SOUTHERN LAKE MICHIGAN

STATION/POSITION TIME  SKY/WX   TEMP WIND        PRES    VSBY
                                AIR  DIR/SP/G
                 (UTC)          (F)  (DEG/KT/KT) (MB)    (MI)
HARRISON CRIB    1540            46  170/ 18/ 19   N/A
BURNHAM HARBOR   1600            42  150/  3/  5   N/A
CALUMET HARBOR   1548            52  160/ 10/ 13 1000.1R
BURNS HARBOR     1540            52  160/ 11/ 21 1001.7S
MICHIGAN CITY    1540            51  140/ 12/ 15   N/A
$$

ABBREVIATIONS USED IN REMARKS
   TC - TEMPERATURE IN CELSIUS
  WCI - WIND CHILL INDEX
   HX - HEAT INDEX
  VSB - VISIBILITY
$$




USA.gov is the U.S. government's official web portal to all federal, state and local government web resources and services.